Volver al catálogo

STARLINK-31488

ActivoComunicacionesVLEO
NORAD 59009·PAYLOAD·🇺🇸 United States

Lanzado Feb 23, 2024 desde Vandenberg Space Force Base

Loading…

Próximos Pases (próximas 24 horas)

TLE

ActualizadoSource: CelesTrak SupGP

Época: Sep 14, 2026, 20:46 UTC

1 59009C 24036M   26257.86576389  .00032513  00000+0  96084-3 0  2572
2 59009  53.1579 277.8930 0001308  80.1767  96.7014 15.34366441    17

Sigue STARLINK-31488 en tiempo real con AllMySat

Download on the App Store